This demonstration page uses our WeatherBlox Daily Observations layout. Learn more.

Left ArrowRight Arrow

Hourly Observations for September 2, 2018

Temp ( °F °C ) Dew Point ( °F °C ) Humidity (%) Winds ( mph kmh ) Pressure ( in mb ) Visibility ( mi km ) Precip ( " mm )
12:54 am 00:54 Cloudy with Nearby Thunderstorms 79 26.1 66 18.9 65 65 SE 9 15 29.90 1013 10 16 0.10 2.54
1:54 am 01:54 Mostly Cloudy with Nearby Thunderstorms 78 25.6 64 17.8 62 62 N N/A 29.85 1011 7 11 0.04 1.02
2:14 am 02:14 Cloudy with Strong Thunderstorms 80 26.7 65 18.3 60 60 SSW 23 37 29.91 1013 2 3 0.02 0.51
2:18 am 02:18 Cloudy with Strong Thunderstorms 76 24.4 65 18.3 69 69 WSW 15 24 29.88 1012 1 1 0.17 4.32
2:29 am 02:29 Cloudy with Strong Thunderstorms 75 23.9 67 19.4 76 76 S 14 22 29.88 1012 1 2 0.58 14.73
2:32 am 02:32 Cloudy with Strong Thunderstorms 77 25 67 19.4 71 71 SSW 9 15 29.88 1012 2 3 0.62 15.75
2:39 am 02:39 Cloudy with Strong Thunderstorms 76 24.4 67 19.4 74 74 W 9 15 29.88 1012 2 3 0.74 18.80
2:46 am 02:46 Cloudy with Strong Thunderstorms 73 22.8 66 18.9 79 79 W 13 20 29.91 1013 2 3 0.76 19.30
2:50 am 02:50 Cloudy with Strong Thunderstorms 72 22 66 19 83 83 W 9 15 29.91 1013 1 2 0.89 22.61
2:54 am 02:54 Cloudy with Strong Thunderstorms 71 21.7 66 18.9 84 84 W 5 7 29.91 1013 1 1 1.02 25.91
3:02 am 03:02 Cloudy with Thunderstorms 75 23.9 66 18.9 74 74 SSW 6 9 29.91 1013 2 3 0.09 2.29
3:17 am 03:17 Mostly Clear with Nearby Thunderstorms 79 26.1 66 18.9 65 65 SW 10 17 29.91 1013 N/A 0.09 2.29
3:32 am 03:32 Mostly Clear with Rain 78 25.6 66 18.9 67 67 S 8 13 29.91 1013 6 10 0.11 2.79
3:41 am 03:41 Mostly Cloudy with Nearby Thunderstorms 78 25.6 66 18.9 67 67 SSW 7 11 29.91 1013 6 10 0.13 3.30
3:54 am 03:54 Mostly Cloudy with Thunderstorms 78 25.6 66 18.9 67 67 SW 6 9 29.91 1013 4 6 0.17 4.32
4:35 am 04:35 Cloudy with Rain 79 26.1 66 18.9 65 65 SSE 10 17 29.88 1012 7 11 0.04 1.02
4:54 am 04:54 Mostly Cloudy with Light Rain 78 25.6 66 18.9 67 67 SSE 10 17 29.88 1012 10 16 0.06 1.52
5:54 am 05:54 Mostly Cloudy 68 20 66 18.9 93 93 SSE 13 20 29.88 1012 10 16 N/A
6:54 am 06:54 Clear 69 20.6 66 18.9 90 90 SSE 9 15 29.89 1012 10 16 N/A
7:54 am 07:54 Sunny 70 21.1 67 19.4 90 90 SSE 6 9 29.89 1012 10 16 N/A
8:54 am 08:54 Partly Cloudy 72 22.2 67 19.4 84 84 ESE 5 7 29.93 1013 10 16 N/A
9:32 am 09:32 Mostly Cloudy 73 22.8 68 20 84 84 SE 5 7 29.94 1014 10 16 N/A
9:54 am 09:54 Cloudy 74 23.3 69 20.6 85 85 SE 6 9 29.94 1014 10 16 N/A
10:54 am 10:54 Cloudy 75 23.9 70 21.1 84 84 S 6 9 29.96 1015 10 16 N/A
11:54 am 11:54 Cloudy 74 23.3 70 21.1 88 88 S 5 7 29.98 1015 10 16 N/A
12:45 pm 12:45 Cloudy with Light Rain 75 23.9 70 21.1 84 84 N N/A 29.97 1015 6 10 0.02 0.51
12:54 pm 12:54 Cloudy with Light Rain 77 25 71 21.7 82 82 N N/A 29.98 1015 8 13 0.02 0.51
1:14 pm 13:14 Mostly Cloudy with Light Rain 81 27.2 71 21.7 72 72 N N/A 29.94 1014 8 13 0.01 0.25
1:21 pm 13:21 Mostly Cloudy with Light Rain 81 27.2 71 21.7 72 72 N N/A 29.94 1014 6 10 0.01 0.25
1:54 pm 13:54 Mostly Cloudy with Light Rain 84 28.9 69 20.6 61 61 N N/A 29.93 1014 10 16 0.01 0.25
2:54 pm 14:54 Cloudy with Light Rain 85 29.4 70 21.1 61 61 N N/A 29.95 1014 10 16 N/A
3:54 pm 15:54 Sunny 95 35 70 21.1 44 44 SE 3 6 29.93 1013 10 16 N/A
4:54 pm 16:54 Mostly Cloudy 95 35 72 22.2 47 47 SSE 5 7 29.93 1014 10 16 N/A
5:54 pm 17:54 Mostly Cloudy 93 33.9 71 21.7 49 49 SSE 8 13 29.93 1014 10 16 N/A
6:54 pm 18:54 Cloudy with Rain 89 31.7 73 22.8 59 59 SE 9 15 29.93 1014 5 8 N/A
7:16 pm 19:16 Cloudy with Thunderstorms 85 29.4 69 20.6 59 59 E 8 13 29.94 1014 6 10 0.04 1.02
7:47 pm 19:47 Cloudy with Nearby Thunderstorms 78 25.6 68 20 71 71 NNE 9 15 29.94 1014 10 16 0.04 1.02
7:54 pm 19:54 Mostly Cloudy 78 25.6 68 20 71 71 NE 9 15 29.96 1015 10 16 0.04 1.02
8:54 pm 20:54 Cloudy with Light Rain 83 28.3 70 21.1 65 65 E 6 9 29.96 1014 10 16 N/A
9:03 pm 21:03 Cloudy with Nearby Thunderstorms 82 27.8 71 21.7 69 69 E 3 6 29.94 1014 10 16 N/A
9:36 pm 21:36 Cloudy with Strong Thunderstorms 78 25.6 71 21.7 79 79 W 9 15 30.03 1017 3 4 0.09 2.29
9:39 pm 21:39 Cloudy with Strong Thunderstorms 78 25.6 70 21.1 76 76 WSW 13 20 30.03 1017 2 3 0.12 3.05
9:54 pm 21:54 Cloudy with Strong Thunderstorms 76 24.4 70 21.1 82 82 VRB 5 7 30.06 1018 1 2 0.43 10.92
9:59 pm 21:59 Cloudy with Strong Thunderstorms 78 25.6 69 20.6 74 74 VRB 3 6 30.03 1017 1 1 0.07 1.78
10:12 pm 22:12 Cloudy with Strong Thunderstorms 76 24.4 69 20.6 79 79 S 6 9 30.03 1017 2 3 0.40 10.16
10:16 pm 22:16 Cloudy with Nearby Thunderstorms 78 25.6 69 20.6 74 74 SSE 8 13 30.00 1016 3 5 0.42 10.67
10:40 pm 22:40 Cloudy with Nearby Thunderstorms 80 26.7 68 20 67 67 SW 8 13 30.03 1017 5 8 0.47 11.94
10:54 pm 22:54 Cloudy with Nearby Thunderstorms 78 25.6 68 20 71 71 SSW 3 6 30.06 1018 4 6 0.53 13.46
11:15 pm 23:15 Mostly Cloudy with Rain 74 23.3 67 19.4 79 79 N N/A 30.06 1018 5 8 0.05 1.27
11:54 pm 23:54 Partly Cloudy with Light Rain 82 27.8 67 19.4 60 60 SE 8 13 30.01 1016 10 16 0.08 2.03

Powered by AerisWeather